This is the latest recevied weather packets stored in our database for station/object 9W2IJB-3. If no packets are shown the sender has not sent any weather packets the latest 10 day(s).
| Time | Temp. | Humidity | Pressure | Rain* | Wind** | Luminosity | Snow |
|---|---|---|---|---|---|---|---|
| 1777843086 | 25° C | 69% | 1020.6 hPa | - | - | - | - |
| 1777841886 | 25° C | 71% | 1020.7 hPa | - | - | - | - |
| 1777840686 | 25° C | 72% | 1020.8 hPa | - | - | - | - |
| 1777839486 | 25° C | 72% | 1020.8 hPa | - | - | - | - |
| 1777838286 | 25° C | 70% | 1020.9 hPa | - | - | - | - |
| 1777837086 | 25° C | 70% | 1020.9 hPa | - | - | - | - |
| 1777835886 | 25.56° C | 70% | 1021.1 hPa | - | - | - | - |
| 1777834686 | 25° C | 72% | 1021.2 hPa | - | - | - | - |
| 1777833486 | 25.56° C | 75% | 1021.3 hPa | - | - | - | - |
| 1777832286 | 25.56° C | 75% | 1021.5 hPa | - | - | - | - |
| 1777831086 | 25.56° C | 75% | 1021.6 hPa | - | - | - | - |
| 1777829886 | 25.56° C | 75% | 1021.7 hPa | - | - | - | - |
| 1777827524 | 25.56° C | 73% | 1021.8 hPa | - | - | - | - |
| 1777827488 | 25.56° C | 73% | 1021.8 hPa | - | - | - | - |
| 1777826288 | 25.56° C | 74% | 1021.9 hPa | - | - | - | - |
| 1777825088 | 25.56° C | 74% | 1021.9 hPa | - | - | - | - |
| 1777823888 | 25.56° C | 74% | 1021.9 hPa | - | - | - | - |
| 1777822688 | 25.56° C | 74% | 1022.1 hPa | - | - | - | - |
| 1777821488 | 25.56° C | 74% | 1021.9 hPa | - | - | - | - |
| 1777820288 | 25.56° C | 75% | 1021.9 hPa | - | - | - | - |
| 1777819088 | 25.56° C | 76% | 1021.7 hPa | - | - | - | - |
| 1777817888 | 26.11° C | 75% | 1021.6 hPa | - | - | - | - |
| 1777816688 | 26.11° C | 75% | 1021.2 hPa | - | - | - | - |
| 1777815488 | 26.11° C | 75% | 1021.2 hPa | - | - | - | - |
| 1777814288 | 26.11° C | 76% | 1021 hPa | - | - | - | - |
* Rain since midnight (hover to see other rain measurements)
** Current wind speed in m/s (hover to see current wind gust speed)